Regional Weather Roundup
Issued by NWS Sterling, VA

Home | Current Version | Previous Version | Graphics & Text | Print | Product List | Glossary On
Versions: 1 2 3 4 5 6 7 8 9 10 11 12 13 14 15 16 17 18 19 20 21 22 23 24 25 26 27 28 29 30 31 32 33 34 35 36 37 38 39 40 41 42 43 44 45 46 47 48 49 50
000
ASUS41 KLWX 220010
RWRLWX

REGIONAL WEATHER ROUNDUP
NATIONAL WEATHER SERVICE BALTIMORE MD/WASHINGTON DC
800 PM EDT THU MAY 21 2015

Note: "FAIR" indicates few or no clouds below 12,000 feet
with no significant weather and/or obstructions to visibility.
 TC=TEMPERATURE CELSIUS

 * =Non NWS site. Station does not report precipitation (e.g. rain,
    snow, etc.), thunder, or fog.

DCZ001-MDZ009-015-VAZ040>042-051-053>054-220100-
WASHINGTON METRO

CITY           SKY/WX    TMP DP  RH WIND       PRES   REMARKS
WASHINGTON NAT CLOUDY    55  48  77 NE5       29.96R
DULLES         CLOUDY    52  49  89 CALM      29.95R
ANDREWS AFB    CLOUDY    52  50  93 N6        29.94R
FT BELVOIR     CLOUDY    53  50  89 N3        29.95R
QUANTICO       CLOUDY    55  49  80 N7        29.95S
COLLEGE PARK*  CLOUDY    52  50  93 CALM      29.95R
LEESBURG*      CLOUDY    54  52  94 SE3       29.96R
MANASSAS*      CLOUDY    54  54 100 CALM      29.95R
GAITHERSBURG*  CLOUDY    50  46  87 CALM      29.99R

$$

MDZ006>007-011-014-220100-
BALTIMORE METRO

CITY           SKY/WX    TMP DP  RH WIND       PRES   REMARKS
BWI AIRPORT    CLOUDY    52  48  86 W3        29.95R
MD SCIENCE CTR   N/A     54  47  77 MISG      29.95R
MARTIN STATE   CLOUDY    52  50  93 CALM      29.96S
ANNAPOLIS      CLOUDY    54  50  86 N7        29.94S
FORT MEADE*    CLOUDY    50  48  93 CALM      29.97S

$$

MDZ012-015-019>023-220100-
MARYLAND EASTERN SHORE

CITY           SKY/WX    TMP DP  RH WIND       PRES   REMARKS
OCEAN CITY     RAIN      53  51  93 NE8       29.89S FOG
SALISBURY      LGT RAIN  52  51  97 N8        29.90R FOG
BAY BRIDGE AP*   N/A    N/A N/A N/A CALM      29.94S
CAMBRIDGE*     MOCLDY    54  50  87 CALM      29.92S
EASTON*        CLOUDY    54  54 100 N3        29.97R

$$

MDZ017>025-220100-
SOUTHERN MARYLAND

CITY           SKY/WX    TMP DP  RH WIND       PRES   REMARKS
PATUXENT RIVER CLOUDY    54  52  93 N8        29.92R
ST INIGOES     CLOUDY    54  51  90 VRB5      29.91R
LEONARDTOWN*   CLOUDY    52  50  93 CALM      29.94S

$$

MDZ003>005-220100-
NORTH CENTRAL MARYLAND

CITY           SKY/WX    TMP DP  RH WIND       PRES   REMARKS
FREDERICK*     CLOUDY    54  50  87 CALM      29.98R
HAGERSTOWN APT LGT RAIN  52  50  93 NW3       29.94R VSB 1
WESTMINSTER*   CLOUDY    52  46  82 CALM      29.94S

$$

MDZ501>502-220100-
WESTERN MARYLAND

CITY           SKY/WX    TMP DP  RH WIND       PRES   REMARKS
OAKLAND*       FOG       43 N/A N/A W6        29.96R VSB 1/4
CUMBERLAND*    CLOUDY    54  54 100 CALM      29.99R

$$

VAZ025>031-220100-
SHENANDOAH VALLEY

CITY           SKY/WX    TMP DP  RH WIND       PRES   REMARKS
WINCHESTER*    DRIZZLE   54  48  82 CALM      29.94R
FRONT ROYAL*   CLOUDY    54  52  94 CALM      29.93R
LURAY*         CLOUDY    55  54  94 CALM      29.93S
NEW MARKET*    CLOUDY    55  52  92 CALM      29.93R
STAUNTON*      CLOUDY    56  51  85 CALM      29.95R
WAYNESBORO*    CLOUDY    54  51  92 N9        29.93R

$$

WVZ021-048>050-054>055-220100-
EASTERN WEST VIRGINIA PANHANDLE

CITY           SKY/WX    TMP DP  RH WIND       PRES   REMARKS
MARTINSBURG    CLOUDY    54  49  83 CALM      29.95R HAZE
PETERSBURG*    CLOUDY    54  50  86 CALM      29.95R

$$

VAZ036>039-050-220100-
CENTRAL FOOTHILLS

CITY           SKY/WX    TMP DP  RH WIND       PRES   REMARKS
CHARLOTTESVILL CLOUDY    54  51  90 E3        29.94R
CULPEPER*      CLOUDY    53  51  92 CALM      29.95S
ORANGE*        CLOUDY    54  52  94 NE5       29.96R
GORDONSVILLE*  CLOUDY    53  51  93 NE6       29.94R
WARRENTON*     CLOUDY    54  53  96 CALM      29.94S

$$

VAZ055>057-220100-
NORTH AND CENTRAL PIEDMONT

CITY           SKY/WX    TMP DP  RH WIND       PRES   REMARKS
FREDERICKSBRG* CLOUDY    56  55  96 N5        29.94S
STAFFORD*      CLOUDY    53  50  90 N3        29.98F

$$

NCZ024-NYZ072-PAZ021-071-VAZ022-071-220100-
OTHER REGIONAL OBSERVATIONS

CITY           SKY/WX    TMP DP  RH WIND       PRES   REMARKS
NEW YORK CITY  CLOUDY    56  44  64 VRB3      29.94S
PHILADELPHIA   CLOUDY    53  48  83 CALM      29.95R
PITTSBURGH     CLOUDY    53  40  61 NW12      29.98R
ROANOKE        CLOUDY    63  49  60 NW14      29.94R
RICHMOND       CLOUDY    57  53  86 N8        29.91S
RALEIGH        MOCLDY    62  57  83 NE6       29.90R

$$

ANZ530>537-220100-
MARINE OBSERVATIONS

STATION/POSITION TIME  TEMP    WIND        PRES
                       AIR SEA DIR/SP/G
                 (UTC) (F)     (DEG/KT/KT) (MB)
THOMAS PT LIGHT  0000   53 66  360/  7/  8 1014.3R
BALT KEY BRIDGE  2300   52     360/  5/  6 1013.6R
COVE POINT       2300   53      40/  9/ 11 1013.5R
LEWISETTA        2300   56 70              1012.5R
PINEY POINT      2300           40/  7/  9   N/A

$$



USA.gov is the U.S. government's official web portal to all federal, state and local government web resources and services.